Time,TemperatureF,DewpointF,PressureIn,WindDirection,WindDirectionDegrees,WindSpeedMPH,WindSpeedGustMPH,Humidity,HourlyPrecipIn,Conditions,Clouds,dailyrainin,SoftwareType,DateUTC
2013-04-27 10:56:00,55.2,28.8,30.06,North,0,0.0,0.0,36,0.00,,OVC036,0.00,VWS V12.08,2013-04-27 17:56:00,
2013-04-27 11:01:00,55.6,29.1,30.06,North,0,0.0,0.0,36,0.00,,OVC036,0.00,VWS V12.08,2013-04-27 18:01:00,
2013-04-27 11:06:00,55.4,28.9,30.06,North,0,0.0,0.0,36,0.00,,OVC036,0.00,VWS V12.08,2013-04-27 18:06:00,
2013-04-27 11:11:00,55.2,28.8,30.06,North,0,0.0,0.0,36,0.00,,OVC036,0.00,VWS V12.08,2013-04-27 18:11:00,
2013-04-27 11:16:00,55.6,29.1,30.06,North,0,0.0,0.0,36,0.00,,OVC036,0.00,VWS V12.08,2013-04-27 18:16:00,
2013-04-27 11:21:00,55.4,28.9,30.06,North,0,0.0,0.0,36,0.00,,OVC036,0.00,VWS V12.08,2013-04-27 18:21:00,
2013-04-27 11:26:00,55.2,28.8,30.06,North,0,0.0,0.0,36,0.00,,OVC036,0.00,VWS V12.08,2013-04-27 18:26:00,
2013-04-27 11:31:00,55.2,28.8,30.06,North,0,0.0,0.0,36,0.00,,OVC036,0.00,VWS V12.08,2013-04-27 18:31:00,
2013-04-27 11:36:00,55.4,28.9,30.06,North,0,0.0,0.0,36,0.00,,OVC036,0.00,VWS V12.08,2013-04-27 18:36:00,
2013-04-27 11:41:00,55.2,29.4,30.06,North,0,0.0,0.0,37,0.00,,OVC036,0.00,VWS V12.08,2013-04-27 18:41:00,
2013-04-27 11:46:00,55.4,29.6,30.06,North,0,0.0,0.0,37,0.00,,OVC036,0.00,VWS V12.08,2013-04-27 18:46:00,
2013-04-27 11:51:00,55.8,29.2,30.06,North,0,0.0,0.0,36,0.00,,OVC036,0.00,VWS V12.08,2013-04-27 18:51:00,
2013-04-27 11:56:00,55.9,30.1,30.06,North,0,0.0,0.0,37,0.00,,OVC036,0.00,VWS V12.08,2013-04-27 18:56:00,
2013-04-27 12:01:00,55.9,30.1,30.06,North,0,0.0,0.0,37,0.00,,OVC036,0.00,VWS V12.08,2013-04-27 19:01:00,
2013-04-27 12:06:00,56.1,29.5,30.06,North,0,0.0,0.0,36,0.00,,OVC036,0.00,VWS V12.08,2013-04-27 19:06:00,
2013-04-27 12:11:00,56.1,29.5,30.06,North,0,0.0,0.0,36,0.00,,OVC036,0.00,VWS V12.08,2013-04-27 19:11:00,
2013-04-27 12:16:00,55.9,29.4,30.06,North,0,0.0,0.0,36,0.00,,OVC036,0.00,VWS V12.08,2013-04-27 19:16:00,
2013-04-27 12:21:00,56.3,29.7,30.06,North,0,0.0,0.0,36,0.00,,OVC036,0.00,VWS V12.08,2013-04-27 19:21:00,
2013-04-27 12:26:00,56.5,29.9,30.06,North,0,0.0,0.0,36,0.00,,OVC036,0.00,VWS V12.08,2013-04-27 19:26:00,
2013-04-27 12:31:00,55.9,29.4,30.06,North,0,0.0,0.0,36,0.00,,OVC036,0.00,VWS V12.08,2013-04-27 19:31:00,
2013-04-27 12:36:00,56.1,29.5,30.06,North,0,0.0,0.0,36,0.00,,OVC036,0.00,VWS V12.08,2013-04-27 19:36:00,
2013-04-27 12:41:00,55.9,29.4,30.06,North,0,0.0,0.0,36,0.00,,OVC036,0.00,VWS V12.08,2013-04-27 19:41:00,
2013-04-27 12:46:00,55.9,29.4,30.06,North,0,0.0,0.0,36,0.00,,OVC036,0.00,VWS V12.08,2013-04-27 19:46:00,
2013-04-27 12:51:00,56.1,29.5,30.06,North,0,0.0,0.0,36,0.00,,OVC036,0.00,VWS V12.08,2013-04-27 19:51:00,
2013-04-27 12:56:00,56.1,29.5,30.06,North,0,0.0,0.0,36,0.00,,OVC036,0.00,VWS V12.08,2013-04-27 19:56:00,
2013-04-27 13:01:00,56.3,29.0,30.06,North,0,0.0,0.0,35,0.00,,OVC036,0.00,VWS V12.08,2013-04-27 20:01:00,
2013-04-27 13:06:00,56.1,28.9,30.06,North,0,0.0,0.0,35,0.00,,OVC036,0.00,VWS V12.08,2013-04-27 20:06:00,
2013-04-27 13:11:00,55.9,29.4,30.06,North,0,0.0,0.0,36,0.00,,OVC036,0.00,VWS V12.08,2013-04-27 20:11:00,
2013-04-27 13:16:00,56.7,30.0,30.06,North,0,0.0,0.0,36,0.00,,OVC036,0.00,VWS V12.08,2013-04-27 20:16:00,
2013-04-27 13:21:00,56.8,30.2,30.06,North,0,0.0,0.0,36,0.00,,OVC036,0.00,VWS V12.08,2013-04-27 20:21:00,
2013-04-27 13:26:00,56.7,30.0,30.06,North,0,0.0,0.0,36,0.00,,OVC036,0.00,VWS V12.08,2013-04-27 20:26:00,
2013-04-27 13:31:00,56.7,30.0,30.06,North,0,0.0,0.0,36,0.00,,OVC036,0.00,VWS V12.08,2013-04-27 20:31:00,
2013-04-27 13:36:00,57.0,31.0,30.06,North,0,0.0,0.0,37,0.00,,OVC036,0.00,VWS V12.08,2013-04-27 20:36:00,
2013-04-27 13:41:00,56.8,30.9,30.06,North,0,0.0,0.0,37,0.00,,OVC036,0.00,VWS V12.08,2013-04-27 20:41:00,
2013-04-27 13:46:00,56.7,30.7,30.06,North,0,0.0,0.0,37,0.00,,OVC036,0.00,VWS V12.08,2013-04-27 20:46:00,
2013-04-27 13:51:00,56.5,30.5,30.06,North,0,0.0,0.0,37,0.00,,OVC036,0.00,VWS V12.08,2013-04-27 20:51:00,
2013-04-27 13:56:00,56.7,30.7,30.06,North,0,0.0,0.0,37,0.00,,OVC036,0.00,VWS V12.08,2013-04-27 20:56:00,
2013-04-27 14:01:00,56.8,30.9,30.06,North,0,0.0,0.0,37,0.00,,OVC036,0.00,VWS V12.08,2013-04-27 21:01:00,
2013-04-27 14:06:00,57.0,30.4,30.06,North,0,0.0,0.0,36,0.00,,OVC036,0.00,VWS V12.08,2013-04-27 21:06:00,
2013-04-27 14:11:00,56.8,30.2,30.06,North,0,0.0,0.0,36,0.00,,OVC036,0.00,VWS V12.08,2013-04-27 21:11:00,
2013-04-27 14:16:00,57.2,30.5,30.06,North,0,0.0,0.0,36,0.00,,OVC036,0.00,VWS V12.08,2013-04-27 21:16:00,
2013-04-27 14:21:00,57.0,30.4,30.06,North,0,0.0,0.0,36,0.00,,OVC036,0.00,VWS V12.08,2013-04-27 21:21:00,
2013-04-27 14:26:00,57.4,30.7,30.06,North,0,0.0,0.0,36,0.00,,OVC036,0.00,VWS V12.08,2013-04-27 21:26:00,
2013-04-27 14:31:00,57.4,30.0,30.06,North,0,0.0,0.0,35,0.00,,OVC036,0.00,VWS V12.08,2013-04-27 21:31:00,
2013-04-27 14:36:00,57.9,30.5,30.06,North,0,0.0,0.0,35,0.00,,OVC036,0.00,VWS V12.08,2013-04-27 21:36:00,
2013-04-27 14:41:00,57.2,29.8,30.06,North,0,0.0,0.0,35,0.00,,OVC036,0.00,VWS V12.08,2013-04-27 21:41:00,
2013-04-27 14:46:00,57.4,30.0,30.06,North,0,0.0,0.0,35,0.00,,OVC036,0.00,VWS V12.08,2013-04-27 21:46:00,
2013-04-27 14:51:00,57.7,30.3,30.06,North,0,0.0,0.0,35,0.00,,OVC036,0.00,VWS V12.08,2013-04-27 21:51:00,
2013-04-27 14:56:00,57.7,30.3,30.06,North,0,0.0,0.0,35,0.00,,OVC036,0.00,VWS V12.08,2013-04-27 21:56:00,
2013-04-27 15:01:00,57.9,30.5,30.06,North,0,0.0,0.0,35,0.00,,OVC036,0.00,VWS V12.08,2013-04-27 22:01:00,
2013-04-27 15:06:00,57.6,30.1,30.06,North,0,0.0,0.0,35,0.00,,OVC036,0.00,VWS V12.08,2013-04-27 22:06:00,
2013-04-27 15:11:00,57.7,30.3,30.03,North,0,0.0,0.0,35,0.00,,OVC036,0.00,VWS V12.08,2013-04-27 22:11:00,
2013-04-27 15:16:00,58.3,30.1,30.03,North,0,0.0,0.0,34,0.00,,OVC036,0.00,VWS V12.08,2013-04-27 22:16:00,
2013-04-27 15:21:00,58.5,30.2,30.03,North,0,0.0,0.0,34,0.00,,OVC036,0.00,VWS V12.08,2013-04-27 22:21:00,
2013-04-27 15:26:00,58.3,30.8,30.03,North,0,0.0,0.0,35,0.00,,OVC036,0.00,VWS V12.08,2013-04-27 22:26:00,
2013-04-27 15:31:00,58.3,30.1,30.03,North,0,0.0,0.0,34,0.00,,OVC036,0.00,VWS V12.08,2013-04-27 22:31:00,
2013-04-27 15:36:00,58.1,29.9,30.03,North,0,0.0,0.0,34,0.00,,OVC036,0.00,VWS V12.08,2013-04-27 22:36:00,
2013-04-27 15:41:00,58.1,29.2,30.03,North,0,0.0,0.0,33,0.00,,OVC036,0.00,VWS V12.08,2013-04-27 22:41:00,
2013-04-27 15:46:00,57.7,30.3,30.03,North,0,0.0,0.0,35,0.00,,OVC036,0.00,VWS V12.08,2013-04-27 22:46:00,
2013-04-27 15:51:00,57.6,30.1,30.03,North,0,0.0,0.0,35,0.00,,OVC036,0.00,VWS V12.08,2013-04-27 22:51:00,
2013-04-27 15:56:00,58.1,29.2,30.03,North,0,0.0,0.0,33,0.00,,OVC036,0.00,VWS V12.08,2013-04-27 22:56:00,
2013-04-27 16:01:00,58.1,29.9,30.03,North,0,0.0,0.0,34,0.00,,OVC036,0.00,VWS V12.08,2013-04-27 23:01:00,
2013-04-27 16:06:00,58.3,29.3,30.03,North,0,0.0,0.0,33,0.00,,OVC036,0.00,VWS V12.08,2013-04-27 23:06:00,
2013-04-27 16:11:00,58.1,29.2,30.03,North,0,0.0,0.0,33,0.00,,OVC036,0.00,VWS V12.08,2013-04-27 23:11:00,
2013-04-27 16:16:00,58.3,30.1,30.03,North,0,0.0,0.0,34,0.00,,OVC036,0.00,VWS V12.08,2013-04-27 23:16:00,
2013-04-27 16:21:00,57.9,29.0,30.03,North,0,0.0,0.0,33,0.00,,OVC036,0.00,VWS V12.08,2013-04-27 23:21:00,
2013-04-27 16:26:00,57.9,29.7,30.03,North,0,0.0,0.0,34,0.00,,OVC036,0.00,VWS V12.08,2013-04-27 23:26:00,
2013-04-27 16:31:00,57.9,29.0,30.03,North,0,0.0,0.0,33,0.00,,OVC036,0.00,VWS V12.08,2013-04-27 23:31:00,
2013-04-27 16:36:00,57.9,30.5,30.03,North,0,0.0,0.0,35,0.00,,OVC036,0.00,VWS V12.08,2013-04-27 23:36:00,
2013-04-27 16:41:00,58.1,29.9,30.03,North,0,0.0,0.0,34,0.00,,OVC036,0.00,VWS V12.08,2013-04-27 23:41:00,
2013-04-27 16:46:00,58.1,30.6,30.03,North,0,0.0,0.0,35,0.00,,OVC036,0.00,VWS V12.08,2013-04-27 23:46:00,
2013-04-27 16:51:00,58.3,30.1,30.03,North,0,0.0,0.0,34,0.00,,OVC036,0.00,VWS V12.08,2013-04-27 23:51:00,
2013-04-27 16:56:00,58.5,30.2,30.03,North,0,0.0,0.0,34,0.00,,OVC036,0.00,VWS V12.08,2013-04-27 23:56:00,
2013-04-27 17:01:00,58.5,30.2,30.03,North,0,0.0,0.0,34,0.00,,OVC036,0.00,VWS V12.08,2013-04-28 00:01:00,
2013-04-27 17:06:00,58.5,30.2,30.03,North,0,0.0,0.0,34,0.00,,OVC036,0.00,VWS V12.08,2013-04-28 00:06:00,
2013-04-27 17:11:00,58.3,30.8,30.03,North,0,0.0,0.0,35,0.00,,OVC036,0.00,VWS V12.08,2013-04-28 00:11:00,
2013-04-27 17:16:00,58.3,30.8,30.03,North,0,0.0,0.0,35,0.00,,OVC036,0.00,VWS V12.08,2013-04-28 00:16:00,
2013-04-27 17:21:00,58.6,31.1,30.03,North,0,0.0,0.0,35,0.00,,OVC036,0.00,VWS V12.08,2013-04-28 00:21:00,
2013-04-27 17:26:00,58.6,29.6,30.03,North,0,0.0,0.0,33,0.00,,OVC036,0.00,VWS V12.08,2013-04-28 00:26:00,
2013-04-27 17:31:00,58.6,30.4,30.03,North,0,0.0,0.0,34,0.00,,OVC036,0.00,VWS V12.08,2013-04-28 00:31:00,
2013-04-27 17:36:00,57.9,30.5,30.03,North,0,0.0,0.0,35,0.00,,OVC036,0.00,VWS V12.08,2013-04-28 00:36:00,
2013-04-27 17:41:00,58.3,30.8,30.03,North,0,0.0,0.0,35,0.00,,OVC036,0.00,VWS V12.08,2013-04-28 00:41:00,
2013-04-27 17:46:00,58.1,30.6,30.03,North,0,0.0,0.0,35,0.00,,OVC036,0.00,VWS V12.08,2013-04-28 00:46:00,
2013-04-27 17:51:00,58.1,30.6,30.03,North,0,0.0,0.0,35,0.00,,OVC036,0.00,VWS V12.08,2013-04-28 00:51:00,
2013-04-27 17:56:00,58.3,30.8,30.03,North,0,0.0,0.0,35,0.00,,OVC036,0.00,VWS V12.08,2013-04-28 00:56:00,
2013-04-27 18:01:00,57.7,30.3,30.03,North,0,0.0,0.0,35,0.00,,OVC036,0.00,VWS V12.08,2013-04-28 01:01:00,
2013-04-27 18:06:00,57.7,30.3,30.03,North,0,0.0,0.0,35,0.00,,OVC036,0.00,VWS V12.08,2013-04-28 01:06:00,
2013-04-27 20:32:00,54.5,32.5,30.06,North,0,0.0,0.0,43,0.00,,OVC036,0.00,VWS V12.08,2013-04-28 03:32:00,
2013-04-27 20:37:00,54.5,33.0,30.06,North,0,0.0,0.0,44,0.00,,OVC036,0.00,VWS V12.08,2013-04-28 03:37:00,
2013-04-27 20:42:00,54.3,33.5,30.06,North,0,0.0,0.0,45,0.00,,OVC036,0.00,VWS V12.08,2013-04-28 03:42:00,
2013-04-27 20:47:00,54.3,33.5,30.06,North,0,0.0,0.0,45,0.00,,OVC036,0.00,VWS V12.08,2013-04-28 03:47:00,
2013-04-27 20:52:00,54.3,33.5,30.06,North,0,0.0,0.0,45,0.00,,OVC036,0.00,VWS V12.08,2013-04-28 03:52:00,
2013-04-27 20:57:00,54.3,33.5,30.06,North,0,0.0,0.0,45,0.00,,OVC036,0.00,VWS V12.08,2013-04-28 03:57:00,
2013-04-27 21:01:00,54.3,33.5,30.06,North,0,0.0,0.0,45,0.00,,OVC036,0.00,VWS V12.08,2013-04-28 04:01:00,
2013-04-27 21:02:00,54.3,34.0,30.06,North,0,0.0,0.0,46,0.00,,OVC036,0.00,VWS V12.08,2013-04-28 04:02:00,
2013-04-27 21:07:00,54.1,33.8,30.06,North,0,0.0,0.0,46,0.00,,OVC036,0.00,VWS V12.08,2013-04-28 04:07:00,
2013-04-27 21:12:00,54.1,33.8,30.06,North,0,0.0,0.0,46,0.00,,OVC036,0.00,VWS V12.08,2013-04-28 04:12:00,
2013-04-27 21:17:00,54.1,33.8,30.06,North,0,0.0,0.0,46,0.00,,OVC036,0.00,VWS V12.08,2013-04-28 04:17:00,
2013-04-27 21:22:00,54.1,33.8,30.06,North,0,0.0,0.0,46,0.00,,OVC036,0.00,VWS V12.08,2013-04-28 04:22:00,
2013-04-27 21:27:00,54.1,33.8,30.06,North,0,0.0,0.0,46,0.00,,OVC036,0.00,VWS V12.08,2013-04-28 04:27:00,
2013-04-27 21:32:00,54.1,33.8,30.06,North,0,0.0,0.0,46,0.00,,OVC036,0.00,VWS V12.08,2013-04-28 04:32:00,
2013-04-27 21:37:00,54.0,33.7,30.06,North,0,0.0,0.0,46,0.00,,OVC036,0.00,VWS V12.08,2013-04-28 04:37:00,
2013-04-27 21:42:00,54.0,33.1,30.06,North,0,0.0,0.0,45,0.00,,OVC036,0.00,VWS V12.08,2013-04-28 04:42:00,
2013-04-27 21:47:00,53.8,33.0,30.06,North,0,0.0,0.0,45,0.00,,OVC036,0.00,VWS V12.08,2013-04-28 04:47:00,
2013-04-27 21:52:00,53.4,33.7,30.06,North,0,0.0,0.0,47,0.00,,OVC036,0.00,VWS V12.08,2013-04-28 04:52:00,
2013-04-27 21:57:00,52.9,33.7,30.09,North,0,0.0,0.0,48,0.00,,OVC036,0.00,VWS V12.08,2013-04-28 04:57:00,
2013-04-27 22:02:00,52.7,34.6,30.09,North,0,0.0,0.0,50,0.00,,OVC036,0.00,VWS V12.08,2013-04-28 05:02:00,
2013-04-27 22:07:00,52.7,34.6,30.09,North,0,0.0,0.0,50,0.00,,OVC036,0.00,VWS V12.08,2013-04-28 05:07:00,
2013-04-27 22:12:00,52.7,34.6,30.09,North,0,0.0,0.0,50,0.00,,OVC036,0.00,VWS V12.08,2013-04-28 05:12:00,
2013-04-27 22:17:00,52.7,34.6,30.09,North,0,0.0,0.0,50,0.00,,OVC036,0.00,VWS V12.08,2013-04-28 05:17:00,
2013-04-27 22:22:00,52.7,34.6,30.09,North,0,0.0,0.0,50,0.00,,OVC036,0.00,VWS V12.08,2013-04-28 05:22:00,
2013-04-27 22:27:00,52.7,35.1,30.09,North,0,0.0,0.0,51,0.00,,OVC036,0.00,VWS V12.08,2013-04-28 05:27:00,
2013-04-27 22:32:00,52.5,34.9,30.09,North,0,0.0,0.0,51,0.00,,OVC036,0.00,VWS V12.08,2013-04-28 05:32:00,
2013-04-27 22:37:00,52.5,34.9,30.09,North,0,0.0,0.0,51,0.00,,OVC036,0.00,VWS V12.08,2013-04-28 05:37:00,
2013-04-27 22:42:00,52.3,34.8,30.09,North,0,0.0,0.0,51,0.00,,OVC036,0.00,VWS V12.08,2013-04-28 05:42:00,
2013-04-27 22:47:00,52.3,35.2,30.09,North,0,0.0,0.0,52,0.00,,OVC036,0.00,VWS V12.08,2013-04-28 05:47:00,
2013-04-27 22:52:00,52.0,34.9,30.09,North,0,0.0,0.0,52,0.00,,OVC036,0.00,VWS V12.08,2013-04-28 05:52:00,
2013-04-27 22:57:00,51.8,35.7,30.09,North,0,0.0,0.0,54,0.00,,OVC036,0.00,VWS V12.08,2013-04-28 05:57:00,
2013-04-27 23:02:00,51.8,36.2,30.09,North,0,0.0,0.0,55,0.00,,OVC036,0.00,VWS V12.08,2013-04-28 06:02:00,
2013-04-27 23:07:00,52.0,36.3,30.09,North,0,0.0,0.0,55,0.00,,OVC036,0.00,VWS V12.08,2013-04-28 06:07:00,
2013-04-27 23:12:00,52.0,35.9,30.09,North,0,0.0,0.0,54,0.00,,OVC036,0.00,VWS V12.08,2013-04-28 06:12:00,
2013-04-27 23:17:00,52.0,35.9,30.09,North,0,0.0,0.0,54,0.00,,OVC036,0.00,VWS V12.08,2013-04-28 06:17:00,
2013-04-27 23:22:00,52.0,36.3,30.09,North,0,0.0,0.0,55,0.00,,OVC036,0.00,VWS V12.08,2013-04-28 06:22:00,
2013-04-27 23:27:00,52.0,36.3,30.09,North,0,0.0,0.0,55,0.00,,OVC036,0.00,VWS V12.08,2013-04-28 06:27:00,
2013-04-27 23:32:00,52.0,36.3,30.09,North,0,0.0,0.0,55,0.00,,OVC036,0.00,VWS V12.08,2013-04-28 06:32:00,
2013-04-27 23:37:00,51.8,36.6,30.09,North,0,0.0,0.0,56,0.00,,OVC036,0.00,VWS V12.08,2013-04-28 06:37:00,
2013-04-27 23:42:00,51.6,37.3,30.09,North,0,0.0,0.0,58,0.00,,OVC036,0.00,VWS V12.08,2013-04-28 06:42:00,
2013-04-27 23:47:00,51.6,37.8,30.09,North,0,0.0,0.0,59,0.00,,OVC036,0.00,VWS V12.08,2013-04-28 06:47:00,
2013-04-27 23:52:00,51.6,37.8,30.09,North,0,0.0,0.0,59,0.00,,OVC036,0.00,VWS V12.08,2013-04-28 06:52:00,
2013-04-27 23:57:00,51.8,37.5,30.09,North,0,0.0,0.0,58,0.00,,OVC036,0.00,VWS V12.08,2013-04-28 06:57:00,